,,,PA_Meas_PMT16A,,PR_Meas_QMR101_102,,RH_Meas_QMH101,,SR_Meas_QMS101,,TA_Meas_QMH101,,GenWind,,GenWind,
date,time,status,PA,status,PR,status,RH,status,SR,status,TA,status,DirAvg,status,SpdAvg,
2012-01-13, 00:00:04,VALID,1000.51,VALID,0,VALID,93.913,VALID,0,VALID,23.7012,VALID,89,VALID,0.236719,
2012-01-13, 00:01:04,VALID,1000.53,VALID,0,VALID,93.852,VALID,0,VALID,23.6817,VALID,89,VALID,0.346484,
2012-01-13, 00:02:04,VALID,1000.53,VALID,0,VALID,93.8443,VALID,0,VALID,23.703,VALID,89,VALID,0.424609,
2012-01-13, 00:03:04,VALID,1000.51,VALID,0,VALID,93.8138,VALID,0,VALID,23.703,VALID,89,VALID,0.419922,
2012-01-13, 00:04:04,VALID,1000.5,VALID,0,VALID,93.7985,VALID,0,VALID,23.6817,VALID,89,VALID,0.420312,
2012-01-13, 00:05:04,VALID,1000.52,VALID,0,VALID,93.8138,VALID,0,VALID,23.6622,VALID,89,VALID,0.423047,
2012-01-13, 00:06:04,VALID,1000.54,VALID,0,VALID,93.768,VALID,0,VALID,23.703,VALID,89,VALID,0.226953,
2012-01-13, 00:07:04,VALID,1000.55,VALID,0,VALID,93.7757,VALID,0,VALID,23.6622,VALID,89,VALID,0,
2012-01-13, 00:08:04,VALID,1000.49,VALID,0,VALID,93.768,VALID,0,VALID,23.6622,VALID,89,VALID,0,
2012-01-13, 00:09:04,VALID,1000.49,VALID,0,VALID,93.7299,VALID,0,VALID,23.6427,VALID,89,VALID,0,
2012-01-13, 00:10:04,VALID,1000.47,VALID,0,VALID,93.7299,VALID,0,VALID,23.664,VALID,89,VALID,0,
2012-01-13, 00:11:04,VALID,1000.45,VALID,0,VALID,93.7375,VALID,0,VALID,23.6427,VALID,89,VALID,0,
2012-01-13, 00:12:04,VALID,1000.42,VALID,0,VALID,93.7604,VALID,0,VALID,23.6835,VALID,89,VALID,0,
2012-01-13, 00:13:04,VALID,1000.4,VALID,0,VALID,93.7604,VALID,0,VALID,23.664,VALID,89,VALID,0,
2012-01-13, 00:14:04,VALID,1000.41,VALID,0,VALID,93.7528,VALID,0,VALID,23.6622,VALID,89,VALID,0,
2012-01-13, 00:15:04,VALID,1000.38,VALID,0,VALID,93.7528,VALID,0,VALID,23.6622,VALID,89,VALID,0,
2012-01-13, 00:16:04,VALID,1000.38,VALID,0,VALID,93.7528,VALID,0,VALID,23.6622,VALID,89,VALID,0,
2012-01-13, 00:17:04,VALID,1000.37,VALID,0,VALID,93.7375,VALID,0,VALID,23.6622,VALID,89,VALID,0,
2012-01-13, 00:18:04,VALID,1000.33,VALID,0,VALID,93.7604,VALID,0,VALID,23.6817,VALID,89,VALID,0,
2012-01-13, 00:19:04,VALID,1000.28,VALID,0,VALID,93.7604,VALID,0,VALID,23.6817,VALID,89,VALID,0,
2012-01-13, 00:20:04,VALID,1000.27,VALID,0,VALID,93.7604,VALID,0,VALID,23.6817,VALID,89,VALID,0,
2012-01-13, 00:21:04,VALID,1000.24,VALID,0,VALID,93.768,VALID,0,VALID,23.6817,VALID,89,VALID,0,
2012-01-13, 00:22:04,VALID,1000.18,VALID,0,VALID,93.7604,VALID,0,VALID,23.6817,VALID,89,VALID,0,
2012-01-13, 00:23:04,VALID,1000.16,VALID,0,VALID,93.7451,VALID,0,VALID,23.6817,VALID,89,VALID,0,
2012-01-13, 00:24:04,VALID,1000.14,VALID,0,VALID,93.7299,VALID,0,VALID,23.703,VALID,89,VALID,0,
2012-01-13, 00:25:04,VALID,1000.1,VALID,0,VALID,93.7299,VALID,0,VALID,23.6817,VALID,111,VALID,0.724609,
2012-01-13, 00:26:04,VALID,1000.11,VALID,0,VALID,93.6994,VALID,0,VALID,23.7012,VALID,113,VALID,0.530078,
2012-01-13, 00:27:04,VALID,1000.08,VALID,0,VALID,93.6307,VALID,0,VALID,23.7012,VALID,113,VALID,0.510547,
2012-01-13, 00:28:04,VALID,1000.1,VALID,0,VALID,93.5697,VALID,0,VALID,23.7012,VALID,113,VALID,0.311719,
2012-01-13, 00:29:04,VALID,1000.05,VALID,0,VALID,93.5468,VALID,0,VALID,23.7225,VALID,113,VALID,0.0789063,
2012-01-13, 00:30:04,VALID,1000.05,VALID,0,VALID,93.5086,VALID,0,VALID,23.7207,VALID,113,VALID,0,
2012-01-13, 00:31:04,VALID,1000.04,VALID,0,VALID,93.5086,VALID,0,VALID,23.7207,VALID,113,VALID,0,
2012-01-13, 00:32:04,VALID,999.997,VALID,0,VALID,93.4857,VALID,0,VALID,23.7207,VALID,113,VALID,0,
2012-01-13, 00:33:04,VALID,1000,VALID,0,VALID,93.4934,VALID,0,VALID,23.7207,VALID,113,VALID,0,
2012-01-13, 00:34:04,VALID,1000,VALID,0,VALID,93.4857,VALID,0,VALID,23.7189,VALID,113,VALID,0.0746094,
2012-01-13, 00:35:04,VALID,999.985,VALID,0,VALID,93.4857,VALID,0,VALID,23.6994,VALID,113,VALID,0,
2012-01-13, 00:36:04,VALID,999.967,VALID,0,VALID,93.501,VALID,0,VALID,23.6994,VALID,113,VALID,0,
2012-01-13, 00:37:04,VALID,999.99,VALID,0,VALID,93.5086,VALID,0,VALID,23.7189,VALID,113,VALID,0.114063,
2012-01-13, 00:38:04,VALID,999.983,VALID,0,VALID,93.5163,VALID,0,VALID,23.6994,VALID,113,VALID,0.183594,
2012-01-13, 00:39:04,VALID,999.961,VALID,0,VALID,93.501,VALID,0,VALID,23.6994,VALID,113,VALID,0.414063,
2012-01-13, 00:40:04,VALID,999.97,VALID,0,VALID,93.5163,VALID,0,VALID,23.7207,VALID,113,VALID,0.356641,
2012-01-13, 00:41:04,VALID,999.952,VALID,0,VALID,93.501,VALID,0,VALID,23.7402,VALID,113,VALID,0.142969,
2012-01-13, 00:42:04,VALID,999.928,VALID,0,VALID,93.4857,VALID,0,VALID,23.6994,VALID,113,VALID,0.519922,
2012-01-13, 00:43:04,VALID,999.917,VALID,0,VALID,93.4628,VALID,0,VALID,23.7189,VALID,113,VALID,0.385156,
2012-01-13, 00:44:04,VALID,999.885,VALID,0,VALID,93.4323,VALID,0,VALID,23.7402,VALID,113,VALID,0.566016,
2012-01-13, 00:45:04,VALID,999.895,VALID,0,VALID,93.4247,VALID,0,VALID,23.7207,VALID,79,VALID,0.789844,
2012-01-13, 00:46:04,VALID,999.855,VALID,0,VALID,93.3789,VALID,0,VALID,23.7189,VALID,74,VALID,0.663672,
2012-01-13, 00:47:04,VALID,999.851,VALID,0,VALID,93.356,VALID,0,VALID,23.6994,VALID,62,VALID,0.790234,
2012-01-13, 00:48:04,VALID,999.816,VALID,0,VALID,93.3331,VALID,0,VALID,23.7402,VALID,62,VALID,0.881641,
2012-01-13, 00:49:04,VALID,999.77,VALID,0,VALID,93.3255,VALID,0,VALID,23.7597,VALID,62,VALID,0.849219,
2012-01-13, 00:50:04,VALID,999.737,VALID,0,VALID,93.3484,VALID,0,VALID,23.7384,VALID,62,VALID,0.810156,
2012-01-13, 00:51:04,VALID,999.722,VALID,0,VALID,93.4094,VALID,0,VALID,23.7579,VALID,47,VALID,0.624219,
2012-01-13, 00:52:04,VALID,999.716,VALID,0,VALID,93.4552,VALID,0,VALID,23.7579,VALID,47,VALID,0.705469,
2012-01-13, 00:53:04,VALID,999.707,VALID,0,VALID,93.4781,VALID,0,VALID,23.7793,VALID,47,VALID,0.716797,
2012-01-13, 00:54:04,VALID,999.687,VALID,0,VALID,93.4934,VALID,0,VALID,23.7384,VALID,34,VALID,0.822656,
2012-01-13, 00:55:04,VALID,999.673,VALID,0,VALID,93.501,VALID,0,VALID,23.7384,VALID,34,VALID,0.725781,
2012-01-13, 00:56:04,VALID,999.648,VALID,0,VALID,93.5239,VALID,0,VALID,23.7402,VALID,34,VALID,0.761328,
2012-01-13, 00:57:04,VALID,999.612,VALID,0,VALID,93.5468,VALID,0.104696,VALID,23.7189,VALID,34,VALID,0.7,
2012-01-13, 00:58:04,VALID,999.62,VALID,0,VALID,93.5697,VALID,0,VALID,23.7189,VALID,34,VALID,0.707031,
2012-01-13, 00:59:04,VALID,999.58,VALID,0,VALID,93.5926,VALID,0,VALID,23.6994,VALID,34,VALID,0.672656,
2012-01-13, 01:00:04,VALID,999.575,VALID,0,VALID,93.6154,VALID,0,VALID,23.6994,VALID,34,VALID,0.371875,
2012-01-13, 01:01:04,VALID,999.578,VALID,0,VALID,93.6002,VALID,0.104696,VALID,23.6799,VALID,34,VALID,0.351563,
2012-01-13, 01:02:04,VALID,999.567,VALID,0,VALID,93.5849,VALID,0,VALID,23.6799,VALID,34,VALID,0.234375,
2012-01-13, 01:03:04,VALID,999.524,VALID,0,VALID,93.6078,VALID,0,VALID,23.6622,VALID,34,VALID,0.241797,
2012-01-13, 01:04:04,VALID,999.551,VALID,0,VALID,93.6154,VALID,0,VALID,23.6427,VALID,34,VALID,0.301172,
2012-01-13, 01:05:04,VALID,999.514,VALID,0,VALID,93.6383,VALID,0,VALID,23.6427,VALID,34,VALID,0.394922,
2012-01-13, 01:06:04,VALID,999.507,VALID,0,VALID,93.6612,VALID,0,VALID,23.6622,VALID,34,VALID,0.551562,
2012-01-13, 01:07:04,VALID,999.5,VALID,0,VALID,93.6765,VALID,0,VALID,23.6427,VALID,34,VALID,0.398047,
2012-01-13, 01:08:04,VALID,999.488,VALID,0,VALID,93.6994,VALID,0,VALID,23.6232,VALID,34,VALID,0.423828,
2012-01-13, 01:09:04,VALID,999.497,VALID,0,VALID,93.707,VALID,0,VALID,23.6445,VALID,34,VALID,0.329297,
2012-01-13, 01:10:04,VALID,999.503,VALID,0,VALID,93.7146,VALID,0,VALID,23.6232,VALID,34,VALID,0.425,
2012-01-13, 01:11:04,VALID,999.491,VALID,0,VALID,93.7375,VALID,0,VALID,23.6232,VALID,34,VALID,0.410547,
2012-01-13, 01:12:04,VALID,999.515,VALID,0,VALID,93.707,VALID,0,VALID,23.6445,VALID,34,VALID,0.193359,
2012-01-13, 01:13:04,VALID,999.516,VALID,0,VALID,93.6994,VALID,0,VALID,23.625,VALID,34,VALID,0,
2012-01-13, 01:14:04,VALID,999.516,VALID,0,VALID,93.6994,VALID,0,VALID,23.5841,VALID,34,VALID,0,
2012-01-13, 01:15:04,VALID,999.513,VALID,0,VALID,93.7146,VALID,0,VALID,23.5841,VALID,34,VALID,0,
2012-01-13, 01:16:04,VALID,999.523,VALID,0,VALID,93.7375,VALID,0,VALID,23.6054,VALID,34,VALID,0,
2012-01-13, 01:17:04,VALID,999.531,VALID,0,VALID,93.6917,VALID,0,VALID,23.5646,VALID,34,VALID,0,
2012-01-13, 01:18:04,VALID,999.536,VALID,0,VALID,93.7146,VALID,0,VALID,23.5646,VALID,34,VALID,0,
2012-01-13, 01:19:04,VALID,999.563,VALID,0,VALID,93.6688,VALID,0,VALID,23.5628,VALID,34,VALID,0.535156,
2012-01-13, 01:20:04,VALID,999.527,VALID,0,VALID,93.6612,VALID,0,VALID,23.5646,VALID,34,VALID,0.441797,
2012-01-13, 01:21:04,VALID,999.486,VALID,0,VALID,93.646,VALID,0,VALID,23.5433,VALID,34,VALID,0.395312,
2012-01-13, 01:22:04,VALID,999.507,VALID,0,VALID,93.6536,VALID,0,VALID,23.5646,VALID,34,VALID,0.633984,
2012-01-13, 01:23:04,VALID,999.505,VALID,0,VALID,93.7299,VALID,0,VALID,23.5628,VALID,24,VALID,0.764063,
2012-01-13, 01:24:04,VALID,999.511,VALID,0,VALID,93.7909,VALID,0.104696,VALID,23.5823,VALID,24,VALID,0.723047,
2012-01-13, 01:25:04,VALID,999.515,VALID,0,VALID,93.8214,VALID,0,VALID,23.5823,VALID,24,VALID,0.572266,
2012-01-13, 01:26:04,VALID,999.529,VALID,0,VALID,93.8443,VALID,0,VALID,23.5823,VALID,24,VALID,0.438281,
2012-01-13, 01:27:04,VALID,999.522,VALID,0,VALID,93.852,VALID,0.104696,VALID,23.5823,VALID,24,VALID,0.265625,
2012-01-13, 01:28:04,VALID,999.525,VALID,0,VALID,93.8367,VALID,0,VALID,23.5841,VALID,24,VALID,0.267969,
2012-01-13, 01:29:04,VALID,999.508,VALID,0,VALID,93.8596,VALID,0,VALID,23.5628,VALID,24,VALID,0.0792969,
2012-01-13, 01:30:04,VALID,999.491,VALID,0,VALID,93.852,VALID,0,VALID,23.5646,VALID,24,VALID,0,
2012-01-13, 01:31:04,VALID,999.475,VALID,0,VALID,93.8596,VALID,0,VALID,23.5433,VALID,24,VALID,0,
2012-01-13, 01:32:04,VALID,999.465,VALID,0,VALID,93.8825,VALID,0,VALID,23.5238,VALID,24,VALID,0,
2012-01-13, 01:33:04,VALID,999.461,VALID,0,VALID,93.8748,VALID,0,VALID,23.5061,VALID,24,VALID,0,
2012-01-13, 01:34:04,VALID,999.431,VALID,0,VALID,93.8901,VALID,0,VALID,23.5061,VALID,24,VALID,0.243359,
2012-01-13, 01:35:04,VALID,999.429,VALID,0,VALID,93.9283,VALID,0,VALID,23.4866,VALID,24,VALID,0.367969,
2012-01-13, 01:36:04,VALID,999.413,VALID,0,VALID,93.9511,VALID,0,VALID,23.5061,VALID,24,VALID,0.376172,
2012-01-13, 01:37:04,VALID,999.408,VALID,0,VALID,93.9893,VALID,0,VALID,23.5256,VALID,24,VALID,0.303125,
2012-01-13, 01:38:04,VALID,999.393,VALID,0,VALID,94.0045,VALID,0,VALID,23.5256,VALID,24,VALID,0.264453,
2012-01-13, 01:39:04,VALID,999.386,VALID,0,VALID,94.0122,VALID,0,VALID,23.5256,VALID,24,VALID,0.200391,
2012-01-13, 01:40:04,VALID,999.358,VALID,0,VALID,94.0274,VALID,0,VALID,23.5256,VALID,24,VALID,0,
2012-01-13, 01:41:04,VALID,999.371,VALID,0,VALID,93.9893,VALID,0,VALID,23.5256,VALID,24,VALID,0,
2012-01-13, 01:42:04,VALID,999.378,VALID,0,VALID,93.974,VALID,0,VALID,23.5061,VALID,24,VALID,0,
2012-01-13, 01:43:04,VALID,999.371,VALID,0,VALID,93.974,VALID,0,VALID,23.5061,VALID,24,VALID,0,
2012-01-13, 01:44:04,VALID,999.371,VALID,0,VALID,93.9664,VALID,0,VALID,23.4866,VALID,24,VALID,0.384766,
2012-01-13, 01:45:04,VALID,999.386,VALID,0,VALID,93.9435,VALID,0,VALID,23.4884,VALID,24,VALID,0.362109,
2012-01-13, 01:46:04,VALID,999.385,VALID,0,VALID,93.9206,VALID,0,VALID,23.4688,VALID,24,VALID,0.309766,
2012-01-13, 01:47:04,VALID,999.381,VALID,0,VALID,93.9359,VALID,0,VALID,23.4493,VALID,24,VALID,0.246484,
2012-01-13, 01:48:04,VALID,999.4,VALID,0,VALID,93.9435,VALID,0,VALID,23.428,VALID,24,VALID,0.168359,
2012-01-13, 01:49:04,VALID,999.435,VALID,0,VALID,93.9664,VALID,0,VALID,23.4085,VALID,24,VALID,0.1125,
2012-01-13, 01:50:04,VALID,999.413,VALID,0,VALID,93.9969,VALID,0,VALID,23.4085,VALID,24,VALID,0,
2012-01-13, 01:51:04,VALID,999.435,VALID,0,VALID,93.9969,VALID,0,VALID,23.4085,VALID,24,VALID,0,
2012-01-13, 01:52:04,VALID,999.386,VALID,0,VALID,94.0274,VALID,0,VALID,23.4298,VALID,24,VALID,0,
2012-01-13, 01:53:04,VALID,999.358,VALID,0,VALID,94.0503,VALID,0,VALID,23.4085,VALID,24,VALID,0,
2012-01-13, 01:54:04,VALID,999.369,VALID,0,VALID,94.0732,VALID,0,VALID,23.4298,VALID,24,VALID,0,
2012-01-13, 01:55:04,VALID,999.377,VALID,0,VALID,94.1114,VALID,0,VALID,23.4085,VALID,24,VALID,0,
2012-01-13, 01:56:04,VALID,999.347,VALID,0,VALID,94.1343,VALID,0,VALID,23.4085,VALID,24,VALID,0,
2012-01-13, 01:57:04,VALID,999.336,VALID,0,VALID,94.1266,VALID,0,VALID,23.4298,VALID,24,VALID,0,
2012-01-13, 01:58:04,VALID,999.333,VALID,0,VALID,94.1571,VALID,0,VALID,23.4298,VALID,24,VALID,0,
2012-01-13, 01:59:04,VALID,999.36,VALID,0,VALID,94.1877,VALID,0,VALID,23.428,VALID,24,VALID,0,
2012-01-13, 02:00:04,VALID,999.346,VALID,0,VALID,94.1953,VALID,0,VALID,23.4493,VALID,24,VALID,0,
2012-01-13, 02:01:04,VALID,999.368,VALID,0,VALID,94.2258,VALID,0,VALID,23.428,VALID,24,VALID,0,
2012-01-13, 02:02:04,VALID,999.354,VALID,0,VALID,94.2334,VALID,0,VALID,23.4493,VALID,24,VALID,0,
2012-01-13, 02:03:04,VALID,999.34,VALID,0,VALID,94.2182,VALID,0,VALID,23.4085,VALID,24,VALID,0,
2012-01-13, 02:04:04,VALID,999.316,VALID,0,VALID,94.2182,VALID,0,VALID,23.4085,VALID,24,VALID,0,
2012-01-13, 02:05:04,VALID,999.303,VALID,0,VALID,94.2334,VALID,0,VALID,23.4298,VALID,24,VALID,0,
2012-01-13, 02:06:04,VALID,999.293,VALID,0,VALID,94.2563,VALID,0,VALID,23.4085,VALID,24,VALID,0,
2012-01-13, 02:07:04,VALID,999.242,VALID,0,VALID,94.2716,VALID,0,VALID,23.4085,VALID,24,VALID,0,
2012-01-13, 02:08:04,VALID,999.23,VALID,0,VALID,94.2487,VALID,0,VALID,23.4298,VALID,24,VALID,0,
2012-01-13, 02:09:04,VALID,999.267,VALID,0,VALID,94.2487,VALID,0,VALID,23.389,VALID,24,VALID,0,
2012-01-13, 02:10:04,VALID,999.208,VALID,0,VALID,94.2334,VALID,0,VALID,23.389,VALID,24,VALID,0,
2012-01-13, 02:11:04,VALID,999.232,VALID,0,VALID,94.2411,VALID,0,VALID,23.3908,VALID,24,VALID,0,
2012-01-13, 02:12:04,VALID,999.233,VALID,0,VALID,94.2334,VALID,0,VALID,23.389,VALID,24,VALID,0,
2012-01-13, 02:13:04,VALID,999.251,VALID,0,VALID,94.2182,VALID,0,VALID,23.3695,VALID,24,VALID,0,
2012-01-13, 02:14:04,VALID,999.229,VALID,0,VALID,94.2258,VALID,0,VALID,23.35,VALID,24,VALID,0,
2012-01-13, 02:15:04,VALID,999.224,VALID,0,VALID,94.2105,VALID,0,VALID,23.3695,VALID,24,VALID,0,
2012-01-13, 02:16:04,VALID,999.177,VALID,0,VALID,94.2487,VALID,0,VALID,23.4103,VALID,24,VALID,0,
2012-01-13, 02:17:04,VALID,999.19,VALID,0,VALID,94.264,VALID,0,VALID,23.389,VALID,24,VALID,0,
2012-01-13, 02:18:04,VALID,999.166,VALID,0,VALID,94.264,VALID,0,VALID,23.428,VALID,24,VALID,0,
2012-01-13, 02:19:04,VALID,999.122,VALID,0,VALID,94.2716,VALID,0.104696,VALID,23.428,VALID,24,VALID,0,
2012-01-13, 02:20:04,VALID,999.163,VALID,0,VALID,94.2716,VALID,0,VALID,23.4067,VALID,24,VALID,0,
2012-01-13, 02:21:04,VALID,999.13,VALID,0,VALID,94.264,VALID,0,VALID,23.4067,VALID,24,VALID,0,
2012-01-13, 02:22:04,VALID,999.144,VALID,0,VALID,94.2945,VALID,0,VALID,23.4263,VALID,24,VALID,0,
2012-01-13, 02:23:04,VALID,999.142,VALID,0,VALID,94.2792,VALID,0,VALID,23.4067,VALID,24,VALID,0,
2012-01-13, 02:24:04,VALID,999.132,VALID,0,VALID,94.264,VALID,0,VALID,23.4067,VALID,24,VALID,0,
2012-01-13, 02:25:04,VALID,999.124,VALID,0,VALID,94.2716,VALID,0,VALID,23.4067,VALID,24,VALID,0,
2012-01-13, 02:26:04,VALID,999.123,VALID,0,VALID,94.3097,VALID,0,VALID,23.4458,VALID,24,VALID,0,
2012-01-13, 02:27:04,VALID,999.117,VALID,0,VALID,94.2945,VALID,0,VALID,23.4458,VALID,24,VALID,0,
2012-01-13, 02:28:04,VALID,999.108,VALID,0,VALID,94.3097,VALID,0,VALID,23.4866,VALID,24,VALID,0,
2012-01-13, 02:29:04,VALID,999.141,VALID,0,VALID,94.3021,VALID,0,VALID,23.4866,VALID,24,VALID,0,
2012-01-13, 02:30:04,VALID,999.177,VALID,0,VALID,94.2945,VALID,0,VALID,23.4848,VALID,24,VALID,0,
2012-01-13, 02:31:04,VALID,999.136,VALID,0,VALID,94.2868,VALID,0,VALID,23.5043,VALID,24,VALID,0,
2012-01-13, 02:32:04,VALID,999.161,VALID,0,VALID,94.2792,VALID,0,VALID,23.5043,VALID,24,VALID,0,
2012-01-13, 02:33:04,VALID,999.172,VALID,0,VALID,94.264,VALID,0,VALID,23.5043,VALID,50,VALID,0.826953,
2012-01-13, 02:34:04,VALID,999.171,VALID,0,VALID,94.2487,VALID,0,VALID,23.5043,VALID,55,VALID,0.55,
2012-01-13, 02:35:04,VALID,999.179,VALID,0,VALID,94.2182,VALID,0,VALID,23.5238,VALID,55,VALID,0.481641,
2012-01-13, 02:36:04,VALID,999.187,VALID,0,VALID,94.2334,VALID,0,VALID,23.5256,VALID,55,VALID,0.506641,
2012-01-13, 02:37:04,VALID,999.204,VALID,0,VALID,94.1953,VALID,0,VALID,23.5451,VALID,55,VALID,0.407813,
2012-01-13, 02:38:04,VALID,999.224,VALID,0,VALID,94.1953,VALID,0,VALID,23.5238,VALID,55,VALID,0.372656,
2012-01-13, 02:39:04,VALID,999.215,VALID,0,VALID,94.18,VALID,0,VALID,23.5238,VALID,55,VALID,0.490625,
2012-01-13, 02:40:04,VALID,999.229,VALID,0,VALID,94.1571,VALID,0.104696,VALID,23.5628,VALID,26,VALID,0.709766,
2012-01-13, 02:41:04,VALID,999.246,VALID,0,VALID,94.2029,VALID,0,VALID,23.5646,VALID,23,VALID,0.495313,
2012-01-13, 02:42:04,VALID,999.285,VALID,0,VALID,94.1953,VALID,0,VALID,23.5628,VALID,23,VALID,0.207422,
2012-01-13, 02:43:04,VALID,999.264,VALID,0,VALID,94.1953,VALID,0,VALID,23.5628,VALID,23,VALID,0.386328,
2012-01-13, 02:44:04,VALID,999.296,VALID,0,VALID,94.1953,VALID,0,VALID,23.5841,VALID,23,VALID,0.348828,
2012-01-13, 02:45:04,VALID,999.295,VALID,0,VALID,94.1953,VALID,0,VALID,23.5628,VALID,23,VALID,0.373828,
2012-01-13, 02:46:04,VALID,999.288,VALID,0,VALID,94.1724,VALID,0,VALID,23.5823,VALID,23,VALID,0.286328,
2012-01-13, 02:47:04,VALID,999.308,VALID,0,VALID,94.18,VALID,0,VALID,23.5823,VALID,23,VALID,0.3625,
2012-01-13, 02:48:04,VALID,999.308,VALID,0,VALID,94.1571,VALID,0,VALID,23.5433,VALID,23,VALID,0.0667969,
2012-01-13, 02:49:04,VALID,999.328,VALID,0,VALID,94.1648,VALID,0,VALID,23.5628,VALID,23,VALID,0,
2012-01-13, 02:50:04,VALID,999.287,VALID,0,VALID,94.1648,VALID,0,VALID,23.5433,VALID,23,VALID,0,
2012-01-13, 02:51:04,VALID,999.317,VALID,0,VALID,94.1495,VALID,0,VALID,23.5841,VALID,23,VALID,0,
2012-01-13, 02:52:04,VALID,999.315,VALID,0,VALID,94.1419,VALID,0,VALID,23.5433,VALID,23,VALID,0,
2012-01-13, 02:53:04,VALID,999.326,VALID,0,VALID,94.1571,VALID,0,VALID,23.5646,VALID,23,VALID,0,
2012-01-13, 02:54:04,VALID,999.314,VALID,0,VALID,94.1953,VALID,0,VALID,23.5628,VALID,23,VALID,0,
2012-01-13, 02:55:04,VALID,999.311,VALID,0,VALID,94.18,VALID,0,VALID,23.5628,VALID,23,VALID,0,
2012-01-13, 02:56:04,VALID,999.321,VALID,0,VALID,94.2105,VALID,0,VALID,23.6036,VALID,23,VALID,0,
2012-01-13, 02:57:04,VALID,999.312,VALID,0,VALID,94.2105,VALID,0,VALID,23.6019,VALID,23,VALID,0,
2012-01-13, 02:58:04,VALID,999.329,VALID,0,VALID,94.2029,VALID,0,VALID,23.6232,VALID,23,VALID,0,
2012-01-13, 02:59:04,VALID,999.329,VALID,0,VALID,94.2182,VALID,0,VALID,23.6019,VALID,23,VALID,0,
2012-01-13, 03:00:04,VALID,999.327,VALID,0,VALID,94.2258,VALID,0,VALID,23.6214,VALID,23,VALID,0,
2012-01-13, 03:01:04,VALID,999.322,VALID,0,VALID,94.2182,VALID,0,VALID,23.6409,VALID,23,VALID,0,
2012-01-13, 03:02:04,VALID,999.331,VALID,0,VALID,94.2105,VALID,0,VALID,23.6622,VALID,23,VALID,0,
2012-01-13, 03:03:04,VALID,999.35,VALID,0,VALID,94.2182,VALID,0,VALID,23.6409,VALID,23,VALID,0,
2012-01-13, 03:04:04,VALID,999.34,VALID,0,VALID,94.2182,VALID,0,VALID,23.6604,VALID,23,VALID,0,
2012-01-13, 03:05:04,VALID,999.378,VALID,0,VALID,94.1953,VALID,0,VALID,23.6604,VALID,23,VALID,0,
2012-01-13, 03:06:04,VALID,999.388,VALID,0,VALID,94.2182,VALID,0.104696,VALID,23.6604,VALID,23,VALID,0,
2012-01-13, 03:07:04,VALID,999.383,VALID,0,VALID,94.2105,VALID,0,VALID,23.6799,VALID,23,VALID,0,
2012-01-13, 03:08:04,VALID,999.392,VALID,0,VALID,94.2105,VALID,0,VALID,23.6799,VALID,23,VALID,0,
2012-01-13, 03:09:04,VALID,999.43,VALID,0,VALID,94.2105,VALID,0,VALID,23.6604,VALID,23,VALID,0,
2012-01-13, 03:10:04,VALID,999.395,VALID,0,VALID,94.2029,VALID,0,VALID,23.6799,VALID,23,VALID,0,
2012-01-13, 03:11:04,VALID,999.399,VALID,0,VALID,94.2182,VALID,0,VALID,23.6799,VALID,23,VALID,0.576172,
2012-01-13, 03:12:04,VALID,999.392,VALID,0,VALID,94.2258,VALID,0,VALID,23.6799,VALID,23,VALID,0.659375,
2012-01-13, 03:13:04,VALID,999.4,VALID,0,VALID,94.2563,VALID,0,VALID,23.6994,VALID,23,VALID,0.56875,
2012-01-13, 03:14:04,VALID,999.36,VALID,0,VALID,94.2716,VALID,0,VALID,23.6994,VALID,23,VALID,0.612109,
2012-01-13, 03:15:04,VALID,999.333,VALID,0,VALID,94.2487,VALID,0,VALID,23.6994,VALID,23,VALID,0.553125,
2012-01-13, 03:16:04,VALID,999.379,VALID,0,VALID,94.2792,VALID,0,VALID,23.7189,VALID,23,VALID,0.542188,
2012-01-13, 03:17:04,VALID,999.35,VALID,0,VALID,94.264,VALID,0,VALID,23.7189,VALID,23,VALID,0.535547,
2012-01-13, 03:18:04,VALID,999.368,VALID,0,VALID,94.2716,VALID,0,VALID,23.6994,VALID,23,VALID,0.667188,
2012-01-13, 03:19:04,VALID,999.409,VALID,0,VALID,94.2716,VALID,0,VALID,23.6994,VALID,23,VALID,0.694922,
2012-01-13, 03:20:04,VALID,999.399,VALID,0,VALID,94.2563,VALID,0,VALID,23.6994,VALID,23,VALID,0.773438,
2012-01-13, 03:21:04,VALID,999.399,VALID,0,VALID,94.264,VALID,0,VALID,23.6994,VALID,28,VALID,0.746875,
2012-01-13, 03:22:04,VALID,999.424,VALID,0,VALID,94.2868,VALID,0,VALID,23.7207,VALID,41,VALID,0.667188,
2012-01-13, 03:23:04,VALID,999.421,VALID,0,VALID,94.2945,VALID,0,VALID,23.7189,VALID,41,VALID,0.609375,
2012-01-13, 03:24:04,VALID,999.439,VALID,0,VALID,94.2868,VALID,0,VALID,23.7189,VALID,41,VALID,0.520703,
2012-01-13, 03:25:04,VALID,999.442,VALID,0,VALID,94.3403,VALID,0,VALID,23.6994,VALID,41,VALID,0.255078,
2012-01-13, 03:26:04,VALID,999.391,VALID,0,VALID,94.325,VALID,0,VALID,23.7402,VALID,41,VALID,0,
2012-01-13, 03:27:04,VALID,999.377,VALID,0,VALID,94.3174,VALID,0,VALID,23.7189,VALID,41,VALID,0,
2012-01-13, 03:28:04,VALID,999.355,VALID,0,VALID,94.3021,VALID,0,VALID,23.7189,VALID,41,VALID,0,
2012-01-13, 03:29:04,VALID,999.375,VALID,0,VALID,94.3097,VALID,0,VALID,23.6994,VALID,41,VALID,0,
2012-01-13, 03:30:04,VALID,999.351,VALID,0,VALID,94.3021,VALID,0,VALID,23.7189,VALID,41,VALID,0,
2012-01-13, 03:31:04,VALID,999.356,VALID,0,VALID,94.325,VALID,0,VALID,23.7189,VALID,41,VALID,0,
2012-01-13, 03:32:04,VALID,999.338,VALID,0,VALID,94.3326,VALID,0.104696,VALID,23.7384,VALID,41,VALID,0,
2012-01-13, 03:33:04,VALID,999.342,VALID,0,VALID,94.325,VALID,0,VALID,23.7384,VALID,41,VALID,0.151953,
2012-01-13, 03:34:04,VALID,999.319,VALID,0,VALID,94.325,VALID,0,VALID,23.7579,VALID,41,VALID,0.576563,
2012-01-13, 03:35:04,VALID,999.302,VALID,0,VALID,94.3479,VALID,0,VALID,23.7793,VALID,90,VALID,0.421484,
2012-01-13, 03:36:04,VALID,999.303,VALID,0,VALID,94.3708,VALID,0,VALID,23.7775,VALID,90,VALID,0.329297,
2012-01-13, 03:37:04,VALID,999.278,VALID,0,VALID,94.3479,VALID,0,VALID,23.7988,VALID,90,VALID,0.245312,
2012-01-13, 03:38:04,VALID,999.276,VALID,0,VALID,94.3555,VALID,0,VALID,23.7988,VALID,90,VALID,0,
2012-01-13, 03:39:04,VALID,999.282,VALID,0,VALID,94.3555,VALID,0,VALID,23.797,VALID,90,VALID,0,
2012-01-13, 03:40:04,VALID,999.295,VALID,0,VALID,94.3555,VALID,0,VALID,23.797,VALID,90,VALID,0,
2012-01-13, 03:41:04,VALID,999.3,VALID,0,VALID,94.3479,VALID,0,VALID,23.797,VALID,90,VALID,0,
2012-01-13, 03:42:04,VALID,999.33,VALID,0,VALID,94.3326,VALID,0,VALID,23.8183,VALID,90,VALID,0,
2012-01-13, 03:43:04,VALID,999.344,VALID,0,VALID,94.325,VALID,0,VALID,23.7988,VALID,90,VALID,0,
2012-01-13, 03:44:04,VALID,999.359,VALID,0,VALID,94.3097,VALID,0,VALID,23.7988,VALID,90,VALID,0,
2012-01-13, 03:45:04,VALID,999.357,VALID,0,VALID,94.3097,VALID,0,VALID,23.7793,VALID,90,VALID,0,
2012-01-13, 03:46:04,VALID,999.36,VALID,0,VALID,94.3021,VALID,0,VALID,23.7579,VALID,90,VALID,0,
2012-01-13, 03:47:04,VALID,999.397,VALID,0,VALID,94.2868,VALID,0,VALID,23.7793,VALID,90,VALID,0,
2012-01-13, 03:48:04,VALID,999.381,VALID,0,VALID,94.2792,VALID,0,VALID,23.7384,VALID,90,VALID,0,
2012-01-13, 03:49:04,VALID,999.387,VALID,0,VALID,94.2487,VALID,0,VALID,23.7189,VALID,90,VALID,0,
2012-01-13, 03:50:04,VALID,999.395,VALID,0,VALID,94.264,VALID,0,VALID,23.7384,VALID,90,VALID,0,
2012-01-13, 03:51:04,VALID,999.421,VALID,0,VALID,94.2792,VALID,0.104696,VALID,23.7384,VALID,90,VALID,0,
2012-01-13, 03:52:04,VALID,999.425,VALID,0,VALID,94.2868,VALID,0,VALID,23.7384,VALID,90,VALID,0,
2012-01-13, 03:53:04,VALID,999.456,VALID,0,VALID,94.3097,VALID,0,VALID,23.7793,VALID,90,VALID,0,
2012-01-13, 03:54:04,VALID,999.448,VALID,0,VALID,94.3174,VALID,0,VALID,23.7775,VALID,90,VALID,0,